星链-1114 (STARLINK-1114 )

导读 | 豆包AI

STARLINK-1114是美国太空探索技术公司(SpaceX)星链计划中的卫星,于2020年1月7日发射升空,归属于美国。星链计划旨在搭建全球卫星互联网,为全球范围提供高速互联网接入服务,该卫星承担着组网后通信传输的任务,是星链星座构建过程中的组成单元之一。

基本信息
目录编号:
44927
目录名称:
STARLINK-1114
国际标识:
2020-001P
轨道中心:
EARTH
卫星名称:
星链-1114
卫星全名:
星链-1114 (STARLINK-1114 )
卫星状态:
在轨 (已飞行2279 天)
发射日期:
2020-01-07 UTC
国别 :
美国 (US)
星等 :
--
轨道信息
数据来源 国际轨道数据 AOE轨道数据
星历时间 2026-04-04T04:00:02+0800
7小时前
查看轨道信息
2026-04-02T07:00:00+0800
2天前
查看轨道信息
半长轴 6780.53km 6781.84km
偏心率 0.0004473 0.0004059
轨道倾角 53.047° 53.048°
近地点辐角 240.346° 232.528°
升交点赤经 208.262° 217.325°
平近点角 25.523° 333.028°
近地点 399.36km 400.95km
远地点 405.426km 406.456km
周期 92.609分钟 92.636分钟
每日圈数 15.549174 15.54467
详细信息
固有亮度:
5
最大亮度:
2.5
卫星平台:
Starlink V1.0
覆盖范围:
全球
运营商:
太空探索技术公司
运营商所在国:
美国
制造商(研发单位):
太空探索技术公司
制造商所在国:
美国
使用方式:
暂无
卫星简介
星链(Starlink)计划是由太空探索技术公司(SpaceX)提出的一个巨型低轨卫星互联网星座项目,计划在2019年至2024年间在太空搭建由约1.2万颗卫星组成的“星链”网络,其中1584颗将部署在地球上空550千米处的近地轨道,并从2020年开始工作。该卫星仍在工作。
2D轨道图
3D轨道图
轨道高度分析图
轨道倾角分析图
轨道综合分析图
查看轨道综合分析图